Date,TemperatureHighF,TemperatureAvgF,TemperatureLowF,DewpointHighF,DewpointAvgF,DewpointLowF,HumidityHigh,HumidityAvg,HumidityLow,PressureMaxIn,PressureMinIn,WindSpeedMaxMPH,WindSpeedAvgMPH,GustSpeedMaxMPH,PrecipitationSumIn
2012-1-1,41,34,27,39,24,15,95,68,42,0.00,40.00,29,19,46,0.00
2012-1-2,27,22,15,18,10,5,79,59,38,0.00,40.00,24,14,37,0.00
2012-1-3,38,28,11,24,13,9,95,55,33,0.00,40.00,17,8,25,0.00
2012-1-4,46,38,31,31,29,23,95,70,51,0.00,40.00,15,9,23,0.00
2012-1-5,65,48,30,35,32,28,95,55,31,0.00,40.00,14,8,22,0.00
2012-1-6,57,46,35,36,32,27,79,60,37,0.00,40.00,15,6,21,0.00
2012-1-7,41,34,27,29,26,22,95,73,58,0.00,40.00,10,5,17,0.00
2012-1-8,41,30,23,36,28,22,95,92,76,0.00,40.00,4,2,6,0.00
2012-1-9,51,37,21,34,28,19,95,74,46,0.00,40.00,20,7,26,0.00
2012-1-10,56,40,27,35,29,26,95,69,32,0.00,40.00,12,4,20,0.00
2012-1-11,52,32,18,39,28,17,95,85,48,0.00,40.00,23,8,37,0.05
2012-1-12,18,14,10,17,10,4,95,87,69,0.00,40.00,21,15,35,0.18
2012-1-13,18,12,7,12,8,6,95,84,65,0.00,40.00,18,8,28,0.00
2012-1-14,31,21,9,28,19,8,95,92,79,0.00,40.00,7,3,10,0.04
2012-1-15,49,31,13,33,25,12,95,79,54,0.00,40.00,19,7,29,0.00
2012-1-16,45,38,31,41,35,30,95,88,79,0.00,40.00,11,5,17,0.00
2012-1-17,32,20,7,31,16,5,95,86,59,0.00,40.00,21,11,32,0.23
2012-1-18,31,18,2,22,12,1,95,80,57,0.00,40.00,19,6,27,0.00
2012-1-19,28,8,2,23,-1,-8,95,65,49,0.00,40.00,17,8,28,0.01
2012-1-20,13,9,2,12,4,-8,95,79,60,0.00,40.00,15,9,20,0.00
2012-1-21,24,18,11,23,16,9,95,94,91,0.00,40.00,16,7,22,0.00
2012-1-22,37,34,27,35,32,26,95,95,95,0.00,40.00,17,8,28,1.65
2012-1-23,35,30,27,34,29,26,95,95,95,0.00,40.00,21,13,32,0.81
2012-1-24,34,28,25,31,26,-100,95,93,82,0.00,40.00,10,-2,17,0.00
2012-1-25,40,32,25,37,31,24,95,94,86,0.00,40.00,13,6,18,0.00
2012-1-26,46,37,32,40,34,-100,95,91,73,0.00,40.00,14,0,21,0.00
2012-1-27,38,32,27,35,28,-100,95,92,72,0.00,40.00,17,-8,27,0.57
2012-1-28,43,33,25,28,22,-100,95,66,34,0.00,40.00,17,4,26,0.00
2012-1-29,38,32,29,24,17,-100,80,56,38,0.00,40.00,14,-7,21,0.00
2012-1-30,67,49,33,42,30,-100,64,50,29,0.00,40.00,20,-3,31,0.00
2012-1-31,60,51,41,55,43,-100,95,78,53,0.00,40.00,19,-5,29,0.00
2012-2-1,58,40,29,45,36,-100,95,87,48,0.00,40.00,7,-4,9,0.00
2012-2-2,56,37,24,45,32,-100,95,85,47,0.00,40.00,6,-4,11,0.00
2012-2-3,38,35,33,37,33,-100,95,94,95,0.00,40.00,15,1,24,0.89
2012-2-4,36,34,33,34,31,-100,95,94,95,0.00,40.00,17,-4,29,3.46
2012-2-5,36,30,26,35,28,-100,95,94,95,0.00,40.00,12,-1,14,0.00
2012-2-6,36,28,22,35,27,21,95,95,95,0.00,40.00,12,5,16,0.00
2012-2-7,33,30,26,32,29,25,95,95,95,0.00,40.00,12,6,16,1.37
2012-2-8,30,26,18,29,24,15,95,89,73,0.00,40.00,10,6,13,0.39
2012-2-9,33,25,14,32,23,13,95,95,89,0.00,40.00,12,5,15,0.00
2012-2-10,35,22,13,34,18,6,95,83,70,0.00,40.00,21,12,32,0.00
2012-2-11,21,13,6,6,3,-2,75,64,45,0.00,40.00,18,11,26,0.00
2012-2-12,31,19,7,16,4,-1,78,54,30,0.00,40.00,12,6,17,0.00
2012-2-13,32,30,26,31,24,9,95,82,43,0.00,40.00,13,7,21,5.73
2012-2-14,41,35,31,38,33,30,95,94,86,0.00,40.00,14,7,19,14.89
2012-2-15,46,37,29,44,36,28,95,95,87,0.00,40.00,9,4,13,14.67
2012-2-16,46,36,28,38,29,23,95,78,43,0.00,40.00,16,7,21,12.04
2012-2-17,50,38,26,37,31,25,95,75,45,0.00,40.00,18,7,26,8.83
2012-2-18,39,31,23,28,24,21,95,76,52,0.00,40.00,11,5,16,8.06
2012-2-19,44,33,23,30,25,22,95,74,44,0.00,40.00,9,4,14,8.82
2012-2-20,49,38,27,34,27,23,86,66,51,0.00,40.00,22,11,32,13.30
2012-2-21,48,42,37,41,33,27,95,72,47,0.00,40.00,21,11,30,10.82
2012-2-22,53,43,34,36,34,31,95,72,46,0.00,40.00,16,5,26,12.16
2012-2-23,38,36,32,37,35,31,95,95,95,0.00,40.00,13,6,21,23.98
2012-2-24,33,30,27,31,28,22,95,91,75,0.00,40.00,22,12,34,11.68
2012-2-25,32,25,18,27,20,14,95,83,60,0.00,40.00,20,8,27,2.81
2012-2-26,57,42,27,36,29,20,91,61,35,0.00,40.00,20,12,34,9.50
2012-2-27,38,30,23,30,21,15,89,68,50,0.00,40.00,14,7,24,9.15
2012-2-28,52,40,31,50,34,25,95,77,55,0.00,40.00,16,9,23,6.04
2012-2-29,54,41,33,53,35,28,95,80,67,0.00,40.00,29,18,44,0.48
2012-3-1,48,38,31,38,34,29,95,85,64,0.00,40.00,13,7,20,0.00
2012-3-2,42,35,31,39,31,-100,95,89,66,0.00,40.00,17,3,26,0.67
2012-3-3,38,32,24,27,22,-100,82,69,52,0.00,40.00,23,6,37,0.00
2012-3-4,30,25,19,29,22,-100,95,92,81,0.00,40.00,11,-17,17,0.30
2012-3-5,47,32,18,32,24,-100,95,76,47,0.00,40.00,18,0,26,0.00
2012-3-6,73,59,37,45,39,26,67,49,32,0.00,40.00,31,16,43,0.00
2012-3-7,69,56,36,57,45,-100,95,71,53,0.00,40.00,29,-6,39,0.94
2012-3-8,48,38,31,35,25,18,95,62,30,0.00,40.00,19,11,35,0.00
2012-3-9,48,37,27,26,17,10,75,46,25,0.00,40.00,10,6,16,0.00
2012-3-10,67,51,36,36,27,-100,56,42,26,0.00,40.00,22,10,31,0.00
2012-3-11,61,49,37,55,40,29,95,71,40,0.00,40.00,18,8,30,1.06
2012-3-12,63,55,48,58,52,47,95,92,74,0.00,40.00,15,9,22,0.43
2012-3-13,76,56,35,57,48,34,95,78,47,0.00,40.00,13,5,19,0.00
2012-3-14,81,70,62,69,63,52,95,80,63,0.00,40.00,17,11,25,0.00
2012-3-15,81,70,59,70,65,58,95,86,57,0.00,40.00,14,7,21,0.24
2012-3-16,83,71,59,72,64,58,95,81,48,0.00,40.00,16,7,26,0.00
2012-3-17,83,70,58,70,64,57,95,82,58,0.00,40.00,19,10,27,0.00
2012-3-18,81,70,60,67,63,59,95,82,61,0.00,40.00,19,10,30,0.48
2012-3-19,81,70,61,68,64,59,95,82,54,0.00,40.00,22,10,35,0.86
2012-3-20,77,65,58,67,59,-100,95,87,58,0.00,40.00,19,9,31,0.30
2012-3-21,72,64,59,68,61,-100,95,92,79,0.00,40.00,14,-1,20,1.89
2012-3-22,69,59,50,65,56,-100,95,93,80,0.00,40.00,13,-2,26,0.98
2012-3-23,65,54,47,62,52,46,95,94,80,0.00,40.00,12,4,19,0.10
2012-3-24,71,60,52,67,58,51,95,93,80,0.00,40.00,11,4,17,0.16
2012-3-25,76,61,48,67,56,47,95,86,57,0.00,40.00,7,2,10,0.34
2012-3-26,63,56,49,59,48,36,95,75,50,0.00,40.00,20,12,29,1.01
2012-3-27,77,64,50,65,57,38,95,76,59,0.00,40.00,24,12,34,1.54
2012-3-28,73,61,46,58,46,39,95,60,33,0.00,40.00,12,4,16,0.00
2012-3-29,60,56,51,55,48,40,93,76,49,0.00,40.00,18,9,25,0.35
2012-3-30,59,54,47,57,52,46,95,95,86,0.00,40.00,16,4,24,0.75
2012-3-31,72,58,50,66,56,49,95,93,81,0.00,40.00,12,7,19,0.00
2012-4-1,86,72,60,72,65,59,95,80,47,0.00,40.00,14,6,19,0.00
2012-4-2,87,67,53,73,62,52,95,86,62,0.00,40.00,16,9,26,0.43
2012-4-3,72,64,56,68,59,55,95,83,59,0.00,40.00,13,6,21,0.00
2012-4-4,67,58,51,55,43,33,93,59,38,0.00,40.00,17,10,26,0.00
2012-4-5,63,53,44,37,31,23,58,43,29,0.00,40.00,17,10,26,0.00
2012-4-6,62,49,35,36,32,27,75,54,35,0.00,40.00,12,6,19,0.00
2012-4-7,56,48,43,54,45,35,95,88,60,0.00,40.00,11,5,17,0.62
2012-4-8,67,53,34,40,36,31,95,57,27,0.00,40.00,16,6,26,0.00
2012-4-9,65,54,39,39,29,22,58,40,25,0.00,40.00,18,7,31,0.00
2012-4-10,58,45,31,27,23,16,72,43,20,0.00,40.00,18,7,28,0.00
2012-4-11,56,42,28,31,23,20,76,49,29,0.00,40.00,9,4,14,0.00
2012-4-12,64,48,30,38,33,28,95,61,32,0.00,40.00,14,5,21,0.00
2012-4-13,57,52,47,53,47,33,95,84,41,0.00,40.00,19,11,33,1.53
2012-4-14,70,59,52,69,57,-100,95,95,93,0.00,40.00,17,6,36,5.08
2012-4-15,76,68,60,70,62,49,95,84,52,0.00,40.00,27,11,44,0.20
2012-4-16,63,53,45,52,46,42,95,78,52,0.00,40.00,24,11,37,0.31
2012-4-17,67,54,39,51,46,38,95,76,49,0.00,40.00,14,5,20,0.00
2012-4-18,74,62,50,62,55,49,95,80,56,0.00,40.00,16,6,24,0.00
2012-4-19,73,60,47,63,57,45,95,90,58,0.00,40.00,13,5,27,0.91
2012-4-20,53,46,41,46,41,38,95,84,58,0.00,40.00,17,9,27,0.00
2012-4-21,55,46,36,47,40,34,95,81,53,0.00,40.00,10,3,16,0.40
2012-4-22,58,50,44,46,40,31,95,74,36,0.00,40.00,15,6,22,0.19
2012-4-23,62,51,40,48,41,-100,95,73,44,0.00,40.00,12,-2,21,0.00
2012-4-24,81,63,47,62,51,40,95,66,47,0.00,40.00,12,5,16,0.00
2012-4-25,83,67,54,72,62,53,95,85,65,0.00,40.00,10,3,14,0.25
2012-4-26,69,61,53,59,49,37,95,66,35,0.00,40.00,14,7,22,0.00
2012-4-27,57,52,46,42,32,24,76,47,29,0.00,40.00,21,11,33,0.68
2012-4-28,56,49,44,53,46,-100,95,92,60,0.00,40.00,16,9,29,0.00
2012-4-29,51,48,45,50,47,44,95,95,95,0.00,40.00,13,7,20,1.11
2012-4-30,65,54,49,61,52,48,95,94,83,0.00,40.00,9,3,12,0.00
2012-5-1,73,60,50,72,59,49,95,95,95,0.00,40.00,12,6,18,0.45
2012-5-2,77,69,60,76,68,59,95,95,95,0.00,40.00,19,7,37,2.10
2012-5-3,82,74,68,77,71,65,95,90,65,0.00,40.00,19,6,28,0.58
2012-5-4,82,71,64,77,69,63,95,94,81,0.00,40.00,18,6,30,1.14
2012-5-5,84,73,66,82,70,-100,95,94,87,0.00,40.00,17,6,22,0.24
2012-5-6,83,72,65,81,70,63,95,95,94,0.00,40.00,14,6,26,0.43
2012-5-7,70,64,58,64,58,51,95,81,57,0.00,40.00,15,7,22,0.56
2012-5-8,68,60,51,52,49,45,95,69,47,0.00,40.00,15,6,27,0.24
2012-5-9,68,56,46,57,50,45,95,81,50,0.00,40.00,10,5,16,0.00
2012-5-10,74,60,45,56,51,44,95,74,50,0.00,40.00,11,4,16,0.26
2012-5-11,83,68,57,67,58,46,92,70,50,0.00,40.00,15,7,24,0.00
2012-5-12,73,63,55,54,48,-100,78,61,47,0.00,40.00,12,6,19,0.00
2012-5-13,75,63,52,59,52,45,95,68,38,0.00,40.00,7,2,12,0.00
2012-5-14,79,65,45,56,50,44,95,63,32,0.00,40.00,12,4,16,0.13
2012-5-15,86,73,59,63,53,41,64,51,29,0.00,40.00,17,8,26,0.14
2012-5-16,77,65,53,52,47,42,76,53,35,0.00,40.00,11,4,16,0.68
2012-5-17,78,65,52,54,49,42,95,59,37,0.00,40.00,16,7,24,0.00
2012-5-18,86,72,54,65,56,46,77,57,44,0.00,40.00,16,8,24,1.24
2012-5-19,85,76,66,67,62,-100,80,62,46,0.00,40.00,16,9,27,1.32
2012-5-20,78,71,56,67,60,49,86,69,52,0.00,40.00,19,8,24,4.65
2012-5-21,76,62,47,51,46,42,86,57,32,0.00,40.00,12,5,21,4.20
2012-5-22,80,66,50,58,53,49,95,65,40,0.00,40.00,13,5,21,4.13
2012-5-23,86,73,59,61,56,51,75,57,38,0.00,40.00,20,10,31,2.63
2012-5-24,85,75,63,73,64,56,95,70,58,0.00,40.00,19,11,32,0.06
2012-5-25,79,65,55,64,59,54,95,84,53,0.00,40.00,16,5,23,0.06
2012-5-26,92,76,62,82,71,59,94,83,67,0.00,40.00,17,7,28,0.00
2012-5-27,91,82,74,78,72,65,95,72,48,0.00,40.00,20,10,29,0.00
2012-5-28,88,80,67,72,64,52,81,59,35,0.00,40.00,17,8,25,0.19
2012-5-29,80,67,54,60,50,-100,95,59,32,0.00,40.00,17,-2,24,0.00
2012-5-30,73,62,50,58,47,42,95,61,37,0.00,40.00,12,4,19,0.21
2012-5-31,60,53,50,55,51,49,95,93,76,0.00,40.00,12,7,21,2.77
2012-6-1,69,58,46,56,49,44,95,74,48,0.00,40.00,11,4,17,0.00
2012-6-2,76,64,55,62,54,-100,95,75,52,0.00,40.00,12,-1,23,0.04
2012-6-3,83,70,52,68,61,51,95,75,46,0.00,40.00,12,4,17,0.11
2012-6-4,80,72,65,73,68,63,95,86,62,0.00,40.00,14,6,19,0.00
2012-6-5,83,71,58,68,63,57,95,78,54,0.00,40.00,12,3,17,0.14
2012-6-6,81,70,62,65,58,55,88,65,45,0.00,40.00,8,4,17,0.03
2012-6-7,83,71,55,63,57,54,95,66,40,0.00,40.00,8,3,12,0.17
2012-6-8,66,63,61,63,61,60,95,94,85,0.00,40.00,3,1,4,0.00
2012-6-10,90,86,80,71,69,67,67,57,48,0.00,40.00,19,11,28,0.00
2012-6-11,83,74,64,75,65,55,95,76,48,0.00,40.00,14,6,26,0.23
2012-6-12,75,65,53,56,50,45,95,62,35,0.00,40.00,12,4,19,0.06
2012-6-13,80,65,50,59,54,48,95,71,41,0.00,40.00,13,5,20,0.00
2012-6-14,90,76,60,68,61,56,88,61,43,0.00,40.00,16,8,26,0.00
2012-6-15,88,75,69,74,66,60,95,73,50,0.00,40.00,20,7,34,0.98
2012-6-16,87,74,69,79,70,-100,95,91,67,0.00,40.00,12,6,19,3.82
2012-6-17,87,77,63,78,68,62,95,78,47,0.00,40.00,15,7,23,0.18
2012-6-18,93,85,78,78,75,71,95,74,59,0.00,40.00,22,13,39,0.00
2012-6-19,92,84,77,77,72,67,83,68,57,0.00,40.00,18,10,31,0.00
2012-6-20,91,84,72,77,74,69,95,72,58,0.00,40.00,20,11,29,0.00
2012-6-21,81,72,63,71,65,62,95,82,54,0.00,40.00,14,4,19,0.58
2012-6-22,84,72,58,69,62,57,95,73,43,0.00,40.00,7,2,11,0.08
2012-6-23,77,70,63,72,66,62,95,88,74,0.00,40.00,10,4,21,0.34
2012-6-24,89,77,66,81,73,64,95,88,73,0.00,40.00,12,5,16,0.21
2012-6-25,81,74,64,75,64,-100,95,74,45,0.00,40.00,19,0,24,0.10
2012-6-26,85,71,55,65,58,51,92,67,45,0.00,40.00,12,6,19,0.00
2012-6-27,99,84,68,80,68,56,76,60,48,0.00,40.00,16,9,26,0.00
2012-6-28,97,88,82,87,80,74,95,76,67,0.00,40.00,14,6,22,0.00
2012-6-29,98,82,72,82,75,68,95,82,48,0.00,40.00,22,4,41,0.23
2012-6-30,92,82,70,82,77,69,95,84,64,0.00,40.00,7,3,11,0.00
2012-7-1,94,83,75,83,76,73,95,82,54,0.00,40.00,13,5,22,0.00
2012-7-2,98,86,71,78,75,69,95,72,48,0.00,40.00,12,5,21,0.00
2012-7-3,99,88,74,80,75,71,94,67,45,0.00,40.00,14,7,24,0.00
2012-7-4,100,89,79,76,73,70,82,60,40,0.00,40.00,11,6,22,0.00
2012-7-5,101,89,75,78,73,69,94,62,40,0.00,40.00,11,-10,17,0.00
2012-7-6,103,88,72,80,74,71,95,68,39,0.00,40.00,13,4,20,0.00
2012-7-7,104,87,72,85,76,70,95,73,34,0.00,40.00,11,3,17,0.00
2012-7-8,88,79,73,76,67,-100,95,68,45,0.00,40.00,13,0,19,0.00
2012-7-9,91,79,66,71,67,61,95,70,38,0.00,40.00,11,4,17,0.00
2012-7-10,90,76,64,70,64,60,88,67,38,0.00,40.00,14,4,20,0.00
2012-7-11,89,77,65,64,60,55,84,59,35,0.00,40.00,12,5,20,0.00
2012-7-12,93,79,65,71,66,61,95,66,42,0.00,40.00,10,4,15,0.00
2012-7-13,87,78,71,72,69,66,95,76,52,0.00,40.00,11,4,16,0.00
2012-7-14,92,78,64,75,69,63,95,75,48,0.00,40.00,10,3,16,0.08
2012-7-15,98,82,67,74,68,-100,95,69,40,0.00,40.00,8,-12,11,0.00
2012-7-16,98,86,71,74,70,-100,95,63,44,0.00,40.00,11,-2,20,0.13
2012-7-17,100,89,78,76,72,70,78,60,40,0.00,40.00,11,6,19,0.00
2012-7-18,105,90,77,76,73,70,91,58,33,0.00,40.00,14,6,21,0.00
2012-7-19,93,82,70,77,72,69,95,74,48,0.00,40.00,12,6,22,0.00
2012-7-20,85,74,64,72,68,63,95,82,58,0.00,40.00,11,5,14,0.00
2012-7-21,94,80,65,73,68,64,95,70,38,0.00,40.00,8,3,12,0.00
2012-7-22,104,86,68,70,67,65,95,59,31,0.00,40.00,14,6,23,0.00
2012-7-23,106,91,76,73,69,65,89,51,30,0.00,40.00,13,6,21,0.08
2012-7-24,99,90,82,77,73,68,75,57,47,0.00,40.00,14,6,23,0.00
2012-7-25,106,92,78,78,73,70,93,57,33,0.00,40.00,19,9,34,0.16
2012-7-26,95,82,73,79,71,64,95,75,38,0.00,40.00,17,6,24,0.47
2012-7-27,86,76,66,71,66,63,95,71,47,0.00,40.00,14,6,21,0.00
2012-7-28,82,72,61,73,67,59,95,86,58,0.00,40.00,8,3,13,0.20
2012-7-29,92,79,67,77,71,65,95,79,53,0.00,40.00,15,6,35,0.20
2012-7-30,94,80,71,79,74,69,95,83,54,0.00,40.00,7,2,12,0.00
2012-7-31,93,82,72,78,71,63,95,72,37,0.00,40.00,9,4,16,0.00
2012-8-1,98,83,64,73,67,63,95,65,33,0.00,40.00,7,3,11,0.00
2012-8-2,95,82,71,74,70,65,95,69,45,0.00,40.00,9,4,13,0.00
2012-8-3,97,83,70,75,70,-100,94,67,41,0.00,40.00,9,-3,16,0.00
2012-8-4,85,76,68,80,74,66,95,91,74,0.00,40.00,13,4,30,0.31
2012-8-5,81,70,60,66,61,54,95,74,42,0.00,40.00,12,5,20,0.00
2012-8-6,91,72,52,65,59,51,95,67,36,0.00,40.00,6,3,10,0.00
2012-8-7,101,81,64,74,66,60,95,66,27,0.00,40.00,12,4,19,0.10
2012-8-8,86,74,68,74,70,66,95,89,60,0.00,40.00,12,4,32,0.37
2012-8-9,81,71,64,70,66,62,95,84,58,0.00,40.00,13,5,26,0.08
2012-8-10,76,66,57,63,59,56,95,81,51,0.00,40.00,13,6,20,0.00
2012-8-11,79,63,53,61,56,51,95,80,44,0.00,40.00,9,2,13,0.00
2012-8-12,73,66,62,68,63,58,95,91,77,0.00,40.00,11,5,19,1.07
2012-8-13,75,66,61,65,62,60,95,87,65,0.00,40.00,14,6,21,0.06
2012-8-14,86,72,57,64,60,56,95,69,39,0.00,40.00,10,4,16,0.00
2012-8-15,91,76,62,67,63,60,95,66,41,0.00,40.00,12,6,19,0.10
2012-8-16,80,71,57,70,62,54,95,76,52,0.00,40.00,26,6,47,0.26
2012-8-17,76,64,51,56,51,46,95,69,35,0.00,40.00,9,4,17,0.00
2012-8-18,76,63,47,59,52,46,95,70,40,0.00,40.00,9,3,13,0.00
2012-8-19,78,66,55,69,58,53,95,75,43,0.00,40.00,17,4,24,0.00
2012-8-20,80,67,52,62,56,51,95,71,43,0.00,40.00,10,3,16,0.00
2012-8-21,85,69,51,58,52,49,95,61,29,0.00,40.00,9,3,13,0.00
2012-8-22,96,76,58,63,57,53,85,56,27,0.00,40.00,10,3,19,0.00
2012-8-23,96,80,63,64,58,55,95,53,26,0.00,40.00,17,7,30,0.00
2012-8-24,94,80,64,64,58,54,92,49,28,0.00,40.00,17,6,30,0.00
2012-8-25,88,72,62,71,65,59,95,80,45,0.00,40.00,11,4,17,0.12
2012-8-26,80,73,69,78,72,67,95,94,88,0.00,40.00,11,4,17,4.24
2012-8-27,89,75,62,78,68,61,95,81,46,0.00,40.00,6,2,9,0.00
2012-8-28,93,77,63,75,68,61,95,79,47,0.00,40.00,6,2,9,0.00
2012-8-29,94,79,66,73,69,65,95,74,46,0.00,40.00,12,5,19,0.00
2012-8-30,97,82,69,72,68,65,95,64,37,0.00,40.00,12,5,19,0.04
2012-8-31,87,76,64,78,72,63,95,86,68,0.00,40.00,9,4,14,0.11
2012-9-1,76,74,70,74,71,62,95,91,73,0.00,40.00,16,9,24,0.15
2012-9-2,87,74,65,78,70,61,95,87,73,0.00,40.00,9,5,14,0.00
2012-9-3,91,78,65,81,73,64,95,88,65,0.00,40.00,9,3,14,0.22
2012-9-4,96,82,72,81,76,70,95,81,55,0.00,40.00,9,3,12,0.00
2012-9-5,89,77,65,77,70,64,95,79,54,0.00,40.00,20,6,34,0.00
2012-9-6,87,72,58,66,60,54,95,69,38,0.00,40.00,9,4,12,0.00
2012-9-7,75,67,58,70,63,52,95,87,75,0.00,40.00,16,6,40,0.24
2012-9-8,78,63,48,55,50,-100,95,67,39,0.00,40.00,17,-1,26,0.00
2012-9-9,75,63,50,56,52,48,95,71,48,0.00,40.00,11,5,19,0.00
2012-9-10,83,65,48,60,53,46,95,69,38,0.00,40.00,15,6,22,0.00
2012-9-11,92,74,56,64,60,54,95,65,33,0.00,40.00,18,8,24,0.00
2012-9-12,91,74,61,67,60,45,95,64,39,0.00,40.00,15,7,24,0.16
2012-9-13,63,55,50,59,53,48,95,92,59,0.00,40.00,15,6,27,1.13
2012-9-14,75,59,45,58,49,44,95,74,39,0.00,40.00,7,2,13,0.00
2012-9-15,80,63,45,58,50,44,95,68,33,0.00,40.00,10,4,17,0.00
2012-9-16,77,62,45,65,57,44,95,84,64,0.00,40.00,11,4,16,0.00
2012-9-17,75,58,47,69,56,45,95,93,57,0.00,40.00,19,4,34,0.00
2012-9-18,65,53,43,48,42,35,95,71,34,0.00,40.00,10,4,20,0.00
2012-9-19,81,65,44,59,49,41,95,59,36,0.00,40.00,21,9,32,0.00
2012-9-20,72,61,48,46,40,35,75,47,26,0.00,40.00,12,5,24,0.13
2012-9-21,73,59,50,52,49,44,95,71,42,0.00,40.00,14,4,22,0.00
2012-9-22,62,52,41,49,37,-100,95,61,41,0.00,40.00,17,6,27,0.12
2012-9-23,65,48,33,41,35,32,95,66,30,0.00,40.00,12,3,22,0.00
2012-9-24,77,56,34,51,41,32,95,62,30,0.00,40.00,13,5,21,0.00
2012-9-25,83,68,56,61,56,51,95,68,41,0.00,40.00,7,2,12,0.08
2012-9-26,77,63,52,54,44,39,82,51,28,0.00,40.00,12,4,16,0.00
2012-9-27,73,59,45,51,44,41,95,61,34,0.00,40.00,9,3,17,0.00
2012-9-28,72,57,40,49,44,38,95,67,35,0.00,40.00,8,2,12,0.10
2012-9-29,82,60,41,50,46,40,95,65,30,0.00,40.00,7,2,13,0.00
2012-9-30,80,63,46,51,48,45,95,62,32,0.00,40.00,9,3,15,0.00
2012-10-1,74,62,49,53,49,47,95,66,40,0.00,40.00,8,2,19,0.00
2012-10-2,77,61,49,56,52,48,95,74,42,0.00,40.00,7,3,10,0.00
2012-10-3,81,63,44,53,49,43,95,66,36,0.00,40.00,11,4,17,0.00
2012-10-4,65,55,47,55,45,35,95,70,50,0.00,40.00,12,6,22,0.21
2012-10-5,48,43,36,36,31,23,84,62,45,0.00,40.00,11,6,19,0.03
2012-10-6,46,39,28,29,26,22,80,60,48,0.00,40.00,14,6,25,0.00
2012-10-7,55,42,27,29,25,21,93,55,27,0.00,40.00,11,5,16,0.00
2012-10-8,65,52,38,38,33,25,73,51,34,0.00,40.00,21,12,32,0.00
2012-10-9,62,52,40,47,41,35,95,68,48,0.00,40.00,14,8,26,0.28
2012-10-10,59,45,32,36,30,24,91,60,26,0.00,40.00,14,6,22,0.00
2012-10-11,72,55,44,48,36,29,64,49,37,0.00,40.00,17,10,26,0.10
2012-10-12,61,50,37,51,30,22,95,48,23,0.00,40.00,15,8,23,0.55
2012-10-13,72,62,52,71,60,50,95,94,89,0.00,40.00,19,8,27,1.48
2012-10-14,65,58,49,64,56,47,95,92,78,0.00,40.00,19,9,34,3.15
2012-10-15,70,54,42,49,44,40,95,73,38,0.00,40.00,7,4,10,0.00
2012-10-16,79,63,48,57,52,46,95,69,44,0.00,40.00,18,8,30,0.00
2012-10-17,66,60,51,59,52,36,95,74,57,0.00,40.00,21,10,40,0.47
2012-10-18,51,47,45,46,40,29,95,77,45,0.00,40.00,22,13,34,2.06
2012-10-19,53,47,43,50,45,41,95,94,84,0.00,40.00,17,10,29,0.06
2012-10-20,60,50,45,49,46,44,95,88,67,0.00,40.00,9,4,14,0.08
2012-10-21,78,60,44,67,55,43,95,84,62,0.00,40.00,12,6,18,0.00
2012-10-22,73,68,63,72,67,62,95,95,92,0.00,40.00,14,5,21,1.70
2012-10-23,76,70,67,70,68,65,95,92,79,0.00,40.00,16,8,27,0.00
2012-10-24,83,74,68,72,70,67,95,85,66,0.00,40.00,16,9,26,0.00
2012-10-25,76,54,39,69,49,29,95,84,68,0.00,40.00,21,14,34,0.58
2012-10-26,46,38,31,31,29,25,93,69,50,0.00,40.00,17,7,26,0.00
2012-10-27,45,35,26,34,27,25,95,74,46,0.00,40.00,7,2,11,0.00
2012-10-28,48,36,25,31,25,19,95,68,31,0.00,40.00,7,2,11,0.00
2012-10-29,49,37,26,36,30,25,95,77,45,0.00,40.00,8,2,12,0.14
2012-10-30,54,40,28,32,30,27,95,70,37,0.00,40.00,13,5,22,0.00
2012-10-31,52,40,29,31,26,18,87,59,26,0.00,40.00,12,6,17,0.00
2012-11-1,62,46,33,44,36,26,93,70,49,0.00,40.00,13,4,21,0.00
2012-11-2,49,41,33,33,31,29,86,68,49,0.00,40.00,13,6,18,0.00
2012-11-3,53,44,35,36,32,29,93,62,39,0.00,40.00,9,5,13,0.00
2012-11-4,49,41,32,42,38,31,95,88,74,0.00,40.00,7,5,12,0.47
2012-11-5,44,41,39,41,39,37,95,91,78,0.00,40.00,12,6,17,0.55
2012-11-6,52,44,40,46,40,38,95,86,63,0.00,40.00,15,8,24,0.25
2012-11-7,48,42,34,41,36,33,95,79,58,0.00,40.00,14,6,24,0.00
2012-11-8,59,45,32,41,37,31,95,76,48,0.00,40.00,16,7,22,0.00
2012-11-9,63,53,41,56,48,40,95,83,64,0.00,40.00,10,5,13,0.00
2012-11-10,75,67,56,62,58,51,95,74,53,0.00,40.00,21,12,35,0.00
2012-11-11,67,44,26,62,41,17,95,87,62,0.00,40.00,18,11,30,4.31
2012-11-12,38,30,22,22,20,17,89,67,49,0.00,40.00,20,11,29,0.00
2012-11-13,50,36,22,29,25,20,95,67,39,0.00,40.00,11,5,15,0.00
2012-11-14,58,45,36,33,28,-100,80,55,29,0.00,40.00,13,6,19,0.00
2012-11-15,60,46,36,36,32,26,91,61,39,0.00,40.00,13,5,17,0.00
2012-11-16,56,40,30,40,35,28,95,83,51,0.00,40.00,7,3,11,0.00
2012-11-17,61,45,33,39,34,30,95,69,40,0.00,40.00,13,7,19,0.00
2012-11-18,61,50,36,36,33,30,85,54,36,0.00,40.00,12,7,18,0.00
2012-11-19,62,53,45,50,45,34,95,75,49,0.00,40.00,16,7,22,0.14
2012-11-20,59,44,33,49,41,32,95,89,63,0.00,40.00,6,3,10,0.08
2012-11-21,69,49,32,55,40,31,95,74,41,0.00,40.00,17,6,23,0.00
2012-11-22,67,54,39,55,43,33,82,66,46,0.00,40.00,26,12,35,0.00
2012-11-23,39,31,23,35,18,14,82,59,48,0.00,40.00,23,13,39,0.07
2012-11-24,35,26,18,23,17,14,82,67,46,0.00,40.00,11,6,17,0.00
2012-11-25,41,37,33,29,26,23,83,66,58,0.00,40.00,11,5,16,0.00
2012-11-26,34,28,16,29,17,9,80,63,48,0.00,40.00,13,8,21,0.00
2012-11-27,37,25,12,18,12,8,92,61,35,0.00,40.00,13,6,18,0.00
2012-11-28,48,33,20,30,24,17,95,69,41,0.00,40.00,8,4,14,0.00
2012-11-29,55,41,30,39,34,29,95,78,53,0.00,40.00,12,5,19,0.00
2012-11-30,55,39,27,44,36,26,95,88,65,0.00,40.00,7,2,9,0.00
2012-12-1,59,47,33,58,46,32,95,95,95,0.00,40.00,10,4,14,0.27
2012-12-2,54,50,44,53,48,42,95,95,95,0.00,40.00,10,3,15,0.00
2012-12-3,70,58,46,67,54,40,95,89,75,0.00,40.00,18,9,30,0.00
2012-12-4,61,46,35,41,32,26,92,62,29,0.00,40.00,14,5,21,0.00
2012-12-5,46,38,27,39,30,24,93,73,55,0.00,40.00,12,6,20,0.00
2012-12-6,52,45,42,44,38,-100,95,80,66,0.00,40.00,12,8,19,0.71
2012-12-7,43,40,36,42,38,35,95,95,92,0.00,40.00,8,4,12,0.43
2012-12-8,40,35,29,39,33,28,95,95,91,0.00,40.00,9,4,14,0.07
2012-12-9,40,34,22,39,32,18,95,94,87,0.00,40.00,20,9,28,0.53
2012-12-10,29,22,16,20,18,15,95,85,65,0.00,40.00,19,9,27,0.00
2012-12-11,41,30,17,26,20,13,95,70,47,0.00,40.00,13,8,20,0.13
2012-12-12,51,38,28,25,21,16,75,52,27,0.00,40.00,20,9,28,0.00
2012-12-13,51,40,28,27,23,19,89,51,36,0.00,40.00,17,8,27,0.00
2012-12-14,54,40,24,46,31,22,95,75,44,0.00,40.00,14,6,23,0.63
2012-12-15,51,46,41,50,45,40,95,95,95,0.00,40.00,15,10,24,0.86
2012-12-16,42,37,33,40,35,32,95,95,95,0.00,40.00,15,6,24,0.00
2012-12-17,35,32,29,33,31,28,95,95,92,0.00,40.00,10,4,14,0.00
2012-12-18,48,36,33,41,34,31,95,92,67,0.00,40.00,24,10,37,0.00
2012-12-19,36,34,32,35,33,31,95,95,95,0.00,40.00,19,8,29,3.15
2012-12-20,34,27,17,33,26,15,95,94,87,0.00,40.00,35,20,48,1.51
2012-12-21,26,18,12,16,13,9,95,80,54,0.00,40.00,17,8,26,0.00
2012-12-22,38,25,13,28,19,11,95,81,48,0.00,40.00,13,5,17,0.00
2012-12-23,30,21,15,24,19,14,95,90,70,0.00,40.00,12,6,17,0.00
2012-12-24,22,19,13,20,17,11,95,92,78,0.00,40.00,16,9,22,0.00
2012-12-25,15,11,7,12,8,4,95,88,76,0.00,40.00,17,7,21,0.00
2012-12-26,19,14,9,18,12,6,95,89,83,0.00,40.00,12,6,17,0.00
2012-12-27,29,20,10,25,18,9,95,90,74,0.00,40.00,12,5,17,0.00
2012-12-28,31,28,24,29,26,23,95,95,95,0.00,40.00,10,4,16,0.35
2012-12-29,24,19,13,23,16,12,95,89,73,0.00,40.00,14,8,22,0.00
2012-12-30,44,28,11,28,20,10,95,74,47,0.00,40.00,16,6,24,0.00
2012-12-31,39,24,16,29,18,10,92,80,59,0.00,40.00,13,8,18,0.00
2013-1-1,20,12,4,11,5,0,95,74,48,0.00,40.00,11,4,18,0.00